• Processing (Info)

  • MPEC 2000-A33 : 2000 AY93

    The following Minor Planet Electronic Circular may be linked-to from your own Web pages, but must not otherwise be redistributed electronically.

    A form allowing access to any MPEC is at the bottom of this page.


    Read MPEC 2000-A32 Read MPEC 2000-A34


    M.P.E.C. 2000-A33                                Issued 2000 Jan.  9, 20:44 UT
    
         The Minor Planet Electronic Circulars contain information on unusual
             minor planets and routine data on comets.  They are published
       on behalf of Commission 20 of the International Astronomical Union by the
              Minor Planet Center, Smithsonian Astrophysical Observatory,
                              Cambridge, MA 02138, U.S.A.
    
                 Prepared using the Tamkin Foundation Computer Network
    
                 BMARSDEN@CFA.HARVARD.EDU or GWILLIAMS@CFA.HARVARD.EDU
              URL http://cfa-www.harvard.edu/iau/mpc.html  ISSN 1523-6714
    
                                       2000 AY93
    
    Observations:
         K00A93Y* C2000 01 05.40270 09 49 19.11 +03 36 10.5          19.1        704
         K00A93Y  C2000 01 05.41802 09 49 19.56 +03 35 49.3          18.6        704
         K00A93Y  C2000 01 05.43335 09 49 20.03 +03 35 27.9          18.8        704
         K00A93Y  C2000 01 06.16775 09 49 44.77 +03 18 15.8          17.5 R      046
         K00A93Y  C2000 01 06.16902 09 49 44.82 +03 18 13.7                      046
         K00A93Y  C2000 01 06.17052 09 49 44.85 +03 18 11.3                      046
         K00A93Y  C2000 01 06.17149 09 49 44.94 +03 18 10.3                      046
         K00A93Y  C2000 01 06.17269 09 49 44.95 +03 18 09.0                      046
         K00A93Y  C2000 01 06.18788 09 49 45.37 +03 17 46.9                      557
         K00A93Y  C2000 01 06.20524 09 49 45.87 +03 17 22.7          19.2 V      557
         K00A93Y  C2000 01 06.36907 09 49 51.81 +03 13 35.7          18.7        704
         K00A93Y  C2000 01 06.38410 09 49 52.26 +03 13 14.1          19.3        704
         K00A93Y  C2000 01 06.39872 09 49 52.74 +03 12 54.0          19.2        704
         K00A93Y  C2000 01 07.06525 09 50 14.04 +02 57 13.9          18.2 R      046
         K00A93Y  C2000 01 07.06676 09 50 14.10 +02 57 10.3                      046
         K00A93Y  C2000 01 07.06812 09 50 14.14 +02 57 09.2                      046
         K00A93Y  C2000 01 07.16433 09 50 16.76 +02 54 53.5          19.0 V      104
         K00A93Y  C2000 01 07.16805 09 50 16.94 +02 54 49.7                      104
         K00A93Y  C2000 01 07.36829 09 50 23.59 +02 50 06.8          19.0        704
         K00A93Y  C2000 01 07.39997 09 50 24.38 +02 49 21.3          19.5        704
         K00A93Y  C2000 01 07.41477 09 50 24.76 +02 49 01.6          19.7        704
         K00A93Y  C2000 01 07.42954 09 50 25.18 +02 48 40.4          19.1        704
         K00A93Y SC2000 01 07.43794 09 50 25.27 +02 48 28.6                      711
         K00A93Y SC2000 01 07.44412 09 50 25.49 +02 48 17.2                      711
         K00A93Y SC2000 01 07.45013 09 50 25.66 +02 48 12.4                      711
         K00A93Y  C2000 01 08.03617 09 50 43.58 +02 34 19.8                      595
         K00A93Y  C2000 01 08.04322 09 50 43.77 +02 34 10.3          18.8 V      595
         K00A93Y  C2000 01 08.06138 09 50 44.28 +02 33 44.7                      595
         K00A93Y  C2000 01 08.37460 09 50 53.44 +02 26 23.6          18.8        704
         K00A93Y  C2000 01 08.38972 09 50 53.87 +02 26 02.2          19.0        704
         K00A93Y  C2000 01 08.40480 09 50 54.14 +02 25 39.2          18.8        704
         K00A93Y  C2000 01 08.41087 09 50 54.32 +02 25 31.0          19.2        704
         K00A93Y  C2000 01 08.42600 09 50 54.74 +02 25 10.6          19.2        704
         K00A93Y  C2000 01 08.44114 09 50 55.12 +02 24 49.3          19.0        704
         K00A93Y  C2000 01 08.57727 09 50 59.51 +02 21 48.7          18.9 R      422
         K00A93Y  C2000 01 08.58377 09 50 59.71 +02 21 39.5          18.9 R      422
         K00A93Y  C2000 01 08.58473 09 50 59.74 +02 21 38.6          18.6 R      422
         K00A93Y  C2000 01 08.59043 09 50 59.91 +02 21 30.9          18.9 R      422
         K00A93Y  C2000 01 09.10766 09 51 13.67 +02 09 00.4                      046
         K00A93Y  C2000 01 09.11076 09 51 13.74 +02 08 55.7                      046
         K00A93Y  C2000 01 09.11214 09 51 13.73 +02 08 54.4                      046
         K00A93Y  C2000 01 09.11360 09 51 13.80 +02 08 52.3                      046
         K00A93Y WC2000 01 09.31985 09 51 19.86 +02 04 01.0                      651
         K00A93Y WC2000 01 09.32216 09 51 19.86 +02 03 58.1                      651
         K00A93Y  C2000 01 09.44528 09 51 22.47 +02 01 03.4                      711
         K00A93Y  C2000 01 09.45268 09 51 22.66 +02 00 53.0                      711
         K00A93Y  C2000 01 09.45887 09 51 22.78 +02 00 43.9                      711
    
    Observer details:
    046 Klet.  Observers J. Ticha, M. Tichy, Z. Moravec.  0.57-m f/5.2 reflector
        + CCD.
    104 San Marcello Pistoiese.  Observers L. Tesi, A. Boattini, M. Tombelli.
        Measurers G. Forti, L. Tesi, A. Boattini, M. Tombelli.  0.40-m f/5
        reflector + CCD.
    422 Loomberah.  Observer G. J. Garradd.  0.45-m f/5.4 reflector + CCD.
    557 Ondrejov.  Observer P. Kusnirak.  0.65-m f/3.6 reflector + CCD.
    595 Farra d'Isonzo.  Observer E. Pettarin.  0.40-m f/4.5 reflector + CCD.
    651 Grasslands Observatory, Tucson.  Observer J. E. McGaha.  0.62-m f/5.1
        reflector + CCD.
    704 Lincoln Laboratory ETS, New Mexico.  Observers M. Blythe, F. Shelly,
        M. Bezpalko, M. Elowitz, R. Huber.  Measurers J. Stuart, H. Viggh,
        R. Sayer, J. B. Evans.  1.0-m f/2.15 reflector + CCD.
    711 McDonald Observatory.  Observer J. G. Ries.  0.76-m reflector + CCD.
    
    Orbital elements:
    2000 AY93
    Epoch 1999 Dec. 28.0 TT = JDT 2451540.5                 Williams
    M 349.94086              (2000.0)            P               Q
    n   0.17430268     Peri.  232.78331     -0.88705003     -0.41957348
    a   3.1739495      Node   281.67655     +0.46075873     -0.77831516
    e   0.5251247      Incl.   11.34316     +0.02904544     -0.46710127
    P   5.65           H   17.5           G   0.15
    From 47 observations 2000 Jan. 5-9.
    
    Ephemeris:
    2000 AY93                a,e,i = 3.17, 0.53, 11                  q = 1.5072
    Date    TT    R. A. (2000) Decl.     Delta      r     Elong.  Phase     V
    2000 01 07    09 50.20   +02 58.9    0.717    1.582   136.4    25.4    18.9
    2000 01 17    09 53.72   -00 59.2    0.651    1.555   143.2    22.3    18.6
    2000 01 27    09 53.87   -04 55.0    0.601    1.533   149.4    19.1    18.3
    2000 02 06    09 51.09   -08 31.3    0.569    1.518   154.1    16.5    18.1
    2000 02 16    09 46.64   -11 29.7    0.553    1.509   155.8    15.6    18.0
    2000 02 26    09 42.36   -13 37.6    0.554    1.507   154.0    16.7    18.0
    2000 03 07    09 40.08   -14 51.9    0.570    1.512   149.8    19.3    18.2
    2000 03 17    09 41.26   -15 20.4    0.600    1.524   144.5    22.3    18.4
    2000 03 27    09 46.49   -15 17.3    0.643    1.542   139.1    25.1    18.6
    2000 04 06    09 55.62   -14 56.6    0.697    1.566   133.8    27.5    18.9
    2000 04 16    10 08.18   -14 30.6    0.763    1.596   128.8    29.4    19.2
    2000 04 26    10 23.39   -14 08.2    0.840    1.631   123.9    30.8    19.5
    2000 05 06    10 40.54   -13 54.1    0.927    1.671   119.2    31.8    19.8
    2000 05 16    10 59.05   -13 51.4    1.026    1.714   114.6    32.4    20.1
    2000 05 26    11 18.39   -14 00.5    1.134    1.761   110.1    32.7    20.4
    2000 06 05    11 38.20   -14 20.8    1.252    1.811   105.6    32.7    20.7
    2000 06 15    11 58.26   -14 51.2    1.379    1.863   101.1    32.3    20.9
    2000 06 25    12 18.36   -15 29.8    1.515    1.918    96.5    31.8    21.2
    2000 07 05    12 38.41   -16 14.8    1.658    1.974    91.9    31.0    21.4
    2000 07 15    12 58.37   -17 04.7    1.807    2.031    87.3    30.0    21.6
    2000 07 25    13 18.20   -17 57.5    1.962    2.089    82.6    28.8    21.8
    2000 08 04    13 37.91   -18 51.8    2.120    2.148    77.8    27.5    22.0
    
    Gareth V. Williams           (C) Copyright 2000 MPC           M.P.E.C. 2000-A33
    

    Read MPEC 2000-A32 Read MPEC 2000-A34


    MPEC number:

    Enter an MPEC number in one of the following forms:

    • 1997-B01 (the full form)
    • J97B01 (the packed version of the full form)
    • B01 (the abbreviated form)